Voltar ao catálogo

STARLINK-32226

AtivoComunicaçõesVLEO
NORAD 60426·PAYLOAD·🇺🇸 United States

Lançado Aug 12, 2024 de Cape Canaveral Space Force Station

Loading…

Próximas Passagens (próximas 24 horas)

TLE

AtualizadoSource: CelesTrak SupGP

Época: Sep 14, 2026, 20:41 UTC

1 60426C 24144B   26257.86229167  .00029707  00000+0  87800-3 0  2573
2 60426  53.1590  55.8139 0001232  79.7499 130.4815 15.34364762    11

Acompanhe STARLINK-32226 em tempo real com AllMySat

Download on the App Store